This demonstration page uses our WeatherBlox Daily Observations layout. Learn more.

Left ArrowRight Arrow

38.89511, -77.03637

Hourly Observations for December 4, 2022

Temp ( °F °C ) Dew Point ( °F °C ) Humidity (%) Winds ( mph kmh ) Pressure ( in mb ) Visibility ( mi km ) Precip ( " mm )
12:52 am 00:52 Mostly Clear 42 5.6 31 -0.6 64 64 NNW 9 15 30.25 1024 10 16 0.00 0.00
1:52 am 01:52 Mostly Clear 42 5.6 30 -1.1 62 62 NNW 9 15 30.27 1025 10 16 0.00 0.00
2:52 am 02:52 Clear 41 5 27 -2.8 57 57 NNW 13 20 30.28 1026 10 16 0.00 0.00
3:52 am 03:52 Clear 40 4.4 26 -3.3 57 57 NNW 13 20 30.27 1025 10 16 0.00 0.00
4:52 am 04:52 Clear 39 3.9 25 -3.9 57 57 N 15 24 30.27 1025 10 16 0.00 0.00
5:52 am 05:52 Clear 38 3.3 26 -3.3 62 62 N 12 19 30.27 1025 10 16 0.00 0.00
6:52 am 06:52 Mostly Clear 37 2.8 26 -3.3 64 64 N 10 17 30.29 1026 10 16 0.00 0.00
7:52 am 07:52 Partly Cloudy 38 3.3 26 -3.3 62 62 N 9 15 30.29 1026 10 16 0.00 0.00
8:52 am 08:52 Mostly Cloudy 40 4.4 25 -3.9 55 55 NNW 12 19 30.30 1026 10 16 0.00 0.00
9:52 am 09:52 Mostly Cloudy 42 5.6 25 -3.9 50 50 NNW 10 17 30.31 1026 10 16 0.00 0.00
10:52 am 10:52 Mostly Cloudy 44 6.7 25 -3.9 47 47 NNW 5 7 30.29 1026 10 16 0.00 0.00
11:52 am 11:52 Mostly Cloudy 46 7.8 24 -4.4 42 42 NW 10 17 30.26 1025 10 16 0.00 0.00
12:52 pm 12:52 Mostly Cloudy 45 7.2 24 -4.4 43 43 N 9 15 30.24 1024 10 16 0.00 0.00
1:52 pm 13:52 Mostly Cloudy 46 7.8 22 -5.6 38 38 NNW 5 7 30.23 1024 10 16 0.00 0.00
2:52 pm 14:52 Partly Cloudy 47 8.3 20 -6.7 34 34 W 8 13 30.23 1024 10 16 0.00 0.00
3:52 pm 15:52 Mostly Sunny 46 7.8 20 -6.7 35 35 NNE 5 7 30.22 1023 10 16 0.00 0.00
4:52 pm 16:52 Mostly Clear 43 6.1 24 -4.4 47 47 Calm 30.22 1023 10 16 0.00 0.00
5:52 pm 17:52 Mostly Clear 43 6.1 27 -2.8 53 53 SE 3 6 30.24 1024 10 16 0.00 0.00
6:52 pm 18:52 Mostly Clear 41 5 24 -4.4 51 51 S 7 11 30.22 1023 10 16 0.00 0.00
7:52 pm 19:52 Mostly Clear 41 5 28 -2.2 60 60 Calm 30.24 1024 10 16 0.00 0.00
8:52 pm 20:52 Clear 38 3.3 26 -3.3 62 62 Calm 30.23 1024 10 16 0.00 0.00
9:52 pm 21:52 Clear 35 1.7 27 -2.8 72 72 WSW 3 6 30.23 1024 10 16 0.00 0.00
10:52 pm 22:52 Clear 36 2.2 27 -2.8 69 69 Calm 30.23 1024 10 16 0.00 0.00
11:52 pm 23:52 Clear 37 2.8 29 -1.7 72 72 Calm 30.22 1023 10 16 0.00 0.00

Powered by AerisWeather